DW0333 Tranby-Lier NO current weather conditions

sailwx.info

Wind from 332 at 2 knots

Air temperature -1.1° C
Dewpoint -1.8° C

Last reported at 2017-Apr-24 18:02 UTC.
Time now 2017-Apr-24 19:12 UTC

Location: N 59°50' E 010°17'.
View on Google Maps.

See reports from other nearby stations

  
Tides and Currents Weather Stations Pressure Air Temp Water Temp Dewpoint Dewpoint Depression Visibility Wind Speed Wind Dir Waves Ship Positions
date/time (UTC)wind fromknots sea level pressurealtimeterstation pressurevisibilityair tempwater tempwave heightnotes
2017-Apr-24 18:02 332 2 -1.1
2017-Apr-24 17:47 323 1 -1.1
2017-Apr-24 17:31 325 1 -1.1
2017-Apr-24 17:16 325 2 -1.1
2017-Apr-24 17:01 308 2 -1.1
2017-Apr-24 16:46 315 2 -1.1
2017-Apr-24 16:31 322 1 -0.6
2017-Apr-24 16:16 314 2 -0.6
2017-Apr-24 16:02 319 2 -0.6
2017-Apr-24 15:46 323 2 -0.6
2017-Apr-24 15:31 302 2 -0.6
2017-Apr-24 15:14 298 3 -0.6
2017-Apr-24 15:01 313 2 -0.6
2017-Apr-24 14:46 295 3 -0.6
2017-Apr-24 14:31 292 4 -0.0
2017-Apr-24 14:13 281 4 -0.0
2017-Apr-24 13:58 291 3 -0.0
2017-Apr-24 13:43 328 4 -0.0
2017-Apr-24 13:28 296 4 -0.0
2017-Apr-24 13:12 310 4 -0.0
2017-Apr-24 12:57 304 4 -0.0
2017-Apr-24 12:42 283 3 -0.0
2017-Apr-24 12:27 304 2 0.6
2017-Apr-24 12:11 316 3 0.6
2017-Apr-24 11:56 323 2 0.6
2017-Apr-24 11:41 284 4 0.6
2017-Apr-24 11:26 329 4 1.1
2017-Apr-24 11:11 299 4 1.1
2017-Apr-24 10:56 348 3 1.7
2017-Apr-24 10:41 308 2 1.7
2017-Apr-24 10:26 310 2 1.7
2017-Apr-24 10:11 310 2 1.7
2017-Apr-24 09:56 327 1 1.7
2017-Apr-24 09:41 016 1 2.2
2017-Apr-24 09:24 025 1 1.7
2017-Apr-24 09:08 350 0 1.1
2017-Apr-24 08:53 005 1.1
2017-Apr-24 08:38 348 0 0.6
2017-Apr-24 08:22 046 0 -0.0
2017-Apr-24 08:07 081 1 -0.0
2017-Apr-24 07:52 051 1 -0.6
2017-Apr-24 07:37 048 1 -0.6
2017-Apr-24 07:21 080 1 -0.6
2017-Apr-24 07:06 042 1 -0.6
2017-Apr-24 06:51 078 2 -0.6
2017-Apr-24 06:36 048 2 -1.1
2017-Apr-24 06:21 051 1 -1.1
2017-Apr-24 06:06 044 2 -1.1
2017-Apr-24 05:51 055 2 -1.1
2017-Apr-24 05:36 084 3 -1.1
2017-Apr-24 05:19 027 1 -1.1
2017-Apr-24 05:04 086 2 -1.1
2017-Apr-24 04:51 081 2 -1.1
2017-Apr-24 04:33 092 3 -1.1
2017-Apr-24 04:19 058 2 -1.1
2017-Apr-24 04:03 052 4 -1.1
2017-Apr-24 03:48 086 4 -1.1
2017-Apr-24 03:33 078 4 -1.1
2017-Apr-24 03:17 032 4 -1.1
2017-Apr-24 03:02 092 3 -1.1
2017-Apr-24 02:47 046 3 -1.1
2017-Apr-24 02:32 102 2 -1.1
2017-Apr-24 02:16 158 3 -0.6
2017-Apr-24 02:02 084 4 -0.6
2017-Apr-24 01:46 061 2 -0.6
2017-Apr-24 01:31 071 3 -0.6
2017-Apr-24 01:16 162 3 -0.0
2017-Apr-24 01:01 161 2 -0.0
2017-Apr-24 00:46 148 3 0.6
2017-Apr-24 00:32 212 4 0.6
2017-Apr-24 00:14 177 2 1.1
2017-Apr-24 00:02 207 3 1.1
2017-Apr-23 23:46 203 3 1.1
2017-Apr-23 23:32 193 4 1.7
2017-Apr-23 23:13 207 4 1.7
2017-Apr-23 22:58 261 4 1.7
2017-Apr-23 22:43 200 3 1.7
2017-Apr-23 22:28 176 1 1.7
2017-Apr-23 22:12 187 1 2.2
2017-Apr-23 21:57 174 1 2.2
2017-Apr-23 21:42 238 0 2.2
2017-Apr-23 21:27 238 1 2.2
2017-Apr-23 21:11 269 2 2.2
2017-Apr-23 20:56 271 0 2.2
2017-Apr-23 20:41 272 0 2.2
2017-Apr-23 20:26 242 2 2.2
2017-Apr-23 20:11 260 1 2.2
2017-Apr-23 19:56 296 1 2.2
2017-Apr-23 19:41 304 1 2.2
2017-Apr-23 19:26 314 1 2.8
2017-Apr-23 19:11 275 2 2.8
2017-Apr-23 18:56 233 3 2.8
2017-Apr-23 18:38 254 3 2.8
2017-Apr-23 18:24 267 3 3.3
2017-Apr-23 18:08 246 4 3.9
2017-Apr-23 17:53 265 5 3.9
2017-Apr-23 17:38 207 6 5.0
2017-Apr-23 17:22 217 6 5.6
2017-Apr-23 17:07 284 5 6.7
2017-Apr-23 16:52 280 4 6.7
2017-Apr-23 16:37 307 6 6.7
2017-Apr-23 16:22 275 6 6.7
2017-Apr-23 16:06 276 4 6.7
2017-Apr-23 15:51 262 5 6.1
2017-Apr-23 15:36 300 6 6.7
2017-Apr-23 15:21 277 6 7.2
2017-Apr-23 15:06 282 6 6.7
2017-Apr-23 14:51 268 6 7.2
2017-Apr-23 14:36 269 6 7.8
2017-Apr-23 14:21 327 6 8.3
2017-Apr-23 14:06 274 6 7.8
2017-Apr-23 13:49 294 5 6.1
2017-Apr-23 13:34 272 5 6.7
2017-Apr-23 13:18 181 5 7.8
2017-Apr-23 13:04 269 4 6.7
2017-Apr-23 12:48 261 6 6.7
2017-Apr-23 12:33 194 6 6.1
2017-Apr-23 12:17 319 2 6.7
2017-Apr-23 12:03 326 1 6.1
2017-Apr-23 11:47 304 4 6.7
2017-Apr-23 11:32 242 5 7.8
2017-Apr-23 11:17 302 3 6.1
2017-Apr-23 11:02 317 5 6.1
2017-Apr-23 10:46 329 5 6.1
2017-Apr-23 10:31 278 3 6.7
2017-Apr-23 10:16 288 3 6.7
2017-Apr-23 10:02 277 5 6.7
2017-Apr-23 09:46 277 4 6.1
2017-Apr-23 09:32 296 3 6.1
2017-Apr-23 09:16 281 6 5.6
2017-Apr-23 09:02 011 5 5.0
2017-Apr-23 08:46 302 5 4.4
2017-Apr-23 08:32 298 6 3.9
2017-Apr-23 08:13 296 4 3.9
2017-Apr-23 07:58 292 5 3.3
2017-Apr-23 07:43 291 6 2.8
2017-Apr-23 07:27 298 3 2.2
2017-Apr-23 07:12 302 4 1.7
2017-Apr-23 06:57 314 6 1.7
2017-Apr-23 06:42 306 5 1.1
2017-Apr-23 06:26 308 6 0.6
2017-Apr-23 06:11 304 3 0.6
2017-Apr-23 05:56 313 4 -0.0
2017-Apr-23 05:41 299 3 -0.6
2017-Apr-23 05:26 315 2 -0.6
2017-Apr-23 05:11 292 1 -0.6
2017-Apr-23 04:56 299 1 -0.6
2017-Apr-23 04:39 278 5 -0.0
2017-Apr-23 04:24 314 6 -0.6
2017-Apr-23 04:09 278 3 -1.1
2017-Apr-23 03:53 300 3 -1.1
2017-Apr-23 03:38 282 3 -1.1
2017-Apr-23 03:23 275 3 -1.1
2017-Apr-23 03:08 305 2 -0.6
2017-Apr-23 02:52 288 6 -0.6
2017-Apr-23 02:37 229 5 -0.6
2017-Apr-23 02:22 292 5 -0.6
2017-Apr-23 02:07 281 3 -0.0
2017-Apr-23 01:51 249 3 -0.0
2017-Apr-23 01:36 321 3 0.6
2017-Apr-23 01:21 287 4 0.6
2017-Apr-23 01:06 313 3 0.6
2017-Apr-23 00:51 295 5 1.1
2017-Apr-23 00:36 313 5 1.1
2017-Apr-23 00:21 288 5 1.1
2017-Apr-23 00:06 288 3 1.1
2017-Apr-22 23:51 306 5 1.1
2017-Apr-22 23:36 319 2 1.1
2017-Apr-22 23:19 286 2 1.1
2017-Apr-22 23:04 279 2 1.7
2017-Apr-22 22:48 313 4 1.7
2017-Apr-22 22:34 294 6 1.7
2017-Apr-22 22:18 302 4 1.7
2017-Apr-22 22:04 281 3 1.7
2017-Apr-22 21:47 290 1 1.7
2017-Apr-22 21:32 310 3 1.7
2017-Apr-22 21:17 308 2 1.7
2017-Apr-22 21:02 276 1 1.7
2017-Apr-22 20:46 299 2 1.7
2017-Apr-22 20:32 330 1 1.7
2017-Apr-22 20:16 319 0 2.2
2017-Apr-22 20:02 310 0 2.2
2017-Apr-22 19:46 226 0 2.8
2017-Apr-22 19:32 226 0 2.8
2017-Apr-22 19:16 355 0 3.3
2017-Apr-22 19:01 317 1 3.9